Previsão horária em Jurzyn

Hoje, 19 Junho, Sábado

Tempo Temperatura Precipitação Vento Pressão Humidade
00:00 +19°C° 0 mm 3 m/s 755 mmHg 82%
01:00 +19°C° 0 mm 3 m/s 755 mmHg 84%
02:00 +18°C° 0 mm 3 m/s 755 mmHg 85%
03:00 +18°C° 0 mm 3 m/s 755 mmHg 87%
04:00 +18°C° 0 mm 2 m/s 755 mmHg 88%
05:00 +20°C° 0 mm 3 m/s 755 mmHg 82%
06:00 +22°C° 0 mm 3 m/s 755 mmHg 76%
07:00 +24°C° 0 mm 3 m/s 755 mmHg 70%
08:00 +26°C° 0 mm 3 m/s 754 mmHg 65%
09:00 +27°C° 0 mm 4 m/s 754 mmHg 60%
10:00 +28°C° 0 mm 4 m/s 754 mmHg 55%
11:00 +29°C° 0 mm 4 m/s 754 mmHg 53%
12:00 +30°C° 0 mm 4 m/s 754 mmHg 52%
13:00 +32°C° 0 mm 4 m/s 753 mmHg 50%
14:00 +30°C° 0 mm 4 m/s 753 mmHg 54%
15:00 +29°C° 0 mm 3 m/s 753 mmHg 59%
16:00 +28°C° 0 mm 3 m/s 753 mmHg 63%
17:00 +28°C° 0 mm 3 m/s 753 mmHg 66%
18:00 +27°C° 0 mm 4 m/s 753 mmHg 69%
19:00 +26°C° 0 mm 4 m/s 753 mmHg 72%
20:00 +25°C° 0 mm 4 m/s 753 mmHg 72%
21:00 +25°C° 0 mm 3 m/s 753 mmHg 71%
22:00 +25°C° 0 mm 3 m/s 753 mmHg 71%
23:00 +24°C° 0 mm 3 m/s 753 mmHg 73%

Amanhã, 20 Junho, Domingo

Tempo Temperatura Precipitação Vento Pressão Humidade
00:00 +24°C° 0 mm 3 m/s 753 mmHg 75%
01:00 +23°C° 0 mm 2 m/s 753 mmHg 76%
02:00 +21°C° 0 mm 3 m/s 753 mmHg 81%
03:00 +20°C° 0 mm 3 m/s 752 mmHg 86%
04:00 +19°C° 0 mm 3 m/s 752 mmHg 90%
05:00 +20°C° 0 mm 3 m/s 752 mmHg 85%
06:00 +22°C° 0 mm 3 m/s 752 mmHg 79%
07:00 +23°C° 0 mm 4 m/s 752 mmHg 74%
08:00 +25°C° 0 mm 4 m/s 752 mmHg 68%
09:00 +27°C° 0 mm 4 m/s 752 mmHg 62%
10:00 +28°C° 0 mm 4 m/s 752 mmHg 56%
11:00 +28°C° 0 mm 4 m/s 752 mmHg 54%
12:00 +29°C° 0 mm 4 m/s 751 mmHg 52%
13:00 +30°C° 0 mm 5 m/s 751 mmHg 49%
14:00 +30°C° 0 mm 4 m/s 751 mmHg 50%
15:00 +30°C° 0 mm 4 m/s 750 mmHg 50%
16:00 +30°C° 0 mm 4 m/s 750 mmHg 50%
17:00 +29°C° 0 mm 4 m/s 750 mmHg 59%
18:00 +27°C° 0 mm 4 m/s 750 mmHg 67%
19:00 +26°C° 0 mm 4 m/s 750 mmHg 75%
20:00 +25°C° 0 mm 4 m/s 750 mmHg 79%
21:00 +24°C° 0 mm 3 m/s 749 mmHg 83%
22:00 +21°C° 0 mm 3 m/s 749 mmHg 87%
23:00 +21°C° 0 mm 3 m/s 749 mmHg 89%

Depois de amanhã, 21 Junho, Segunda-feira

Tempo Temperatura Precipitação Vento Pressão Humidade
00:00 +21°C° 0 mm 3 m/s 749 mmHg 91%
01:00 +20°C° 0 mm 2 m/s 749 mmHg 93%
02:00 +20°C° 0 mm 3 m/s 749 mmHg 93%
03:00 +20°C° 0 mm 3 m/s 749 mmHg 93%
04:00 +19°C° 0 mm 3 m/s 748 mmHg 94%
05:00 +21°C° 0 mm 4 m/s 748 mmHg 86%
06:00 +22°C° 0 mm 5 m/s 748 mmHg 79%
07:00 +25°C° 0 mm 5 m/s 748 mmHg 72%
08:00 +26°C° 0 mm 6 m/s 748 mmHg 68%
09:00 +27°C° 0 mm 6 m/s 748 mmHg 64%
10:00 +28°C° 0 mm 6 m/s 748 mmHg 60%
11:00 +28°C° 0 mm 5 m/s 748 mmHg 60%
12:00 +28°C° 0 mm 5 m/s 748 mmHg 59%
13:00 +29°C° 0 mm 5 m/s 747 mmHg 59%
14:00 +28°C° 0 mm 5 m/s 747 mmHg 60%
15:00 +28°C° 0 mm 4 m/s 747 mmHg 61%
16:00 +28°C° 0 mm 4 m/s 747 mmHg 62%
17:00 +27°C° 0.1 mm 4 m/s 747 mmHg 66%
18:00 +27°C° 0.1 mm 3 m/s 747 mmHg 70%
19:00 +26°C° 0.1 mm 3 m/s 747 mmHg 75%
20:00 +25°C° 0.2 mm 3 m/s 747 mmHg 79%
21:00 +22°C° 0.2 mm 3 m/s 747 mmHg 83%
22:00 +21°C° 0.2 mm 3 m/s 747 mmHg 87%
23:00 +21°C° 0 mm 3 m/s 747 mmHg 88%

22 Junho, Terça-feira

Tempo Temperatura Precipitação Vento Pressão Humidade
00:00 +20°C° 0 mm 2 m/s 747 mmHg 90%
01:00 +20°C° 0 mm 2 m/s 747 mmHg 91%
02:00 +20°C° 0 mm 2 m/s 747 mmHg 92%
03:00 +20°C° 0 mm 2 m/s 747 mmHg 93%
04:00 +20°C° 0 mm 2 m/s 747 mmHg 93%
05:00 +21°C° 0.1 mm 2 m/s 748 mmHg 89%
06:00 +23°C° 0.1 mm 2 m/s 748 mmHg 84%
07:00 +25°C° 0.1 mm 2 m/s 748 mmHg 79%
08:00 +26°C° 0.8 mm 2 m/s 749 mmHg 75%
09:00 +27°C° 0.8 mm 2 m/s 749 mmHg 71%
10:00 +28°C° 0.8 mm 2 m/s 749 mmHg 67%
11:00 +28°C° 0.7 mm 1 m/s 749 mmHg 64%
12:00 +29°C° 0.7 mm 1 m/s 749 mmHg 62%
13:00 +29°C° 0.7 mm 1 m/s 749 mmHg 59%
14:00 +30°C° 0.2 mm 1 m/s 749 mmHg 58%
15:00 +30°C° 0.2 mm 1 m/s 749 mmHg 57%
16:00 +30°C° 0.2 mm 1 m/s 750 mmHg 56%
17:00 +29°C° 0.4 mm 1 m/s 750 mmHg 63%
18:00 +27°C° 0.4 mm 2 m/s 750 mmHg 70%
19:00 +26°C° 0.4 mm 2 m/s 750 mmHg 76%
20:00 +25°C° 0.2 mm 2 m/s 750 mmHg 81%
21:00 +24°C° 0.2 mm 3 m/s 750 mmHg 85%
22:00 +21°C° 0.2 mm 3 m/s 751 mmHg 89%
23:00 +21°C° 0.2 mm 3 m/s 751 mmHg 91%

23 Junho, Quarta-feira

Tempo Temperatura Precipitação Vento Pressão Humidade
00:00 +20°C° 0.2 mm 3 m/s 751 mmHg 93%
01:00 +20°C° 0.2 mm 3 m/s 751 mmHg 95%
02:00 +19°C° 0 mm 3 m/s 751 mmHg 96%
03:00 +19°C° 0 mm 3 m/s 751 mmHg 96%
04:00 +19°C° 0 mm 3 m/s 751 mmHg 96%
05:00 +20°C° 0 mm 3 m/s 751 mmHg 91%
06:00 +22°C° 0 mm 3 m/s 751 mmHg 85%
07:00 +25°C° 0 mm 3 m/s 752 mmHg 80%
08:00 +26°C° 0 mm 3 m/s 751 mmHg 73%
09:00 +28°C° 0 mm 3 m/s 751 mmHg 66%
10:00 +30°C° 0 mm 3 m/s 751 mmHg 59%
11:00 +30°C° 0 mm 3 m/s 751 mmHg 57%
12:00 +31°C° 0 mm 2 m/s 751 mmHg 54%
13:00 +31°C° 0 mm 2 m/s 751 mmHg 52%
14:00 +31°C° 0 mm 2 m/s 751 mmHg 54%
15:00 +31°C° 0 mm 3 m/s 751 mmHg 56%
16:00 +30°C° 0 mm 3 m/s 751 mmHg 58%
17:00 +29°C° 0 mm 3 m/s 751 mmHg 63%
18:00 +28°C° 0 mm 3 m/s 751 mmHg 68%
19:00 +27°C° 0 mm 2 m/s 751 mmHg 74%
20:00 +26°C° 0 mm 3 m/s 751 mmHg 76%
21:00 +25°C° 0 mm 3 m/s 751 mmHg 79%
22:00 +24°C° 0 mm 3 m/s 751 mmHg 82%
23:00 +22°C° 0 mm 3 m/s 751 mmHg 83%

24 Junho, Quinta-feira

Tempo Temperatura Precipitação Vento Pressão Humidade
00:00 +22°C° 0 mm 3 m/s 751 mmHg 85%
01:00 +22°C° 0 mm 3 m/s 751 mmHg 86%
02:00 +21°C° 0 mm 3 m/s 750 mmHg 87%
03:00 +21°C° 0 mm 3 m/s 750 mmHg 88%
04:00 +21°C° 0 mm 3 m/s 750 mmHg 89%
05:00 +22°C° 0 mm 3 m/s 750 mmHg 85%
06:00 +23°C° 0 mm 4 m/s 751 mmHg 82%
07:00 +25°C° 0 mm 5 m/s 751 mmHg 78%
08:00 +25°C° 0.1 mm 5 m/s 752 mmHg 75%
09:00 +25°C° 0.1 mm 5 m/s 752 mmHg 72%
10:00 +25°C° 0.1 mm 5 m/s 752 mmHg 68%
11:00 +26°C° 0.2 mm 5 m/s 753 mmHg 66%
12:00 +26°C° 0.2 mm 5 m/s 753 mmHg 63%
13:00 +26°C° 0.2 mm 5 m/s 753 mmHg 60%
14:00 +26°C° 0 mm 5 m/s 753 mmHg 60%
15:00 +26°C° 0 mm 5 m/s 753 mmHg 59%
16:00 +26°C° 0 mm 5 m/s 753 mmHg 58%
17:00 +25°C° 0 mm 4 m/s 753 mmHg 64%
18:00 +24°C° 0 mm 3 m/s 753 mmHg 69%
19:00 +22°C° 0 mm 3 m/s 753 mmHg 74%
20:00 +21°C° 0 mm 3 m/s 753 mmHg 77%
21:00 +20°C° 0 mm 3 m/s 754 mmHg 79%
22:00 +19°C° 0 mm 3 m/s 754 mmHg 82%
23:00 +18°C° 0 mm 2 m/s 754 mmHg 83%
Mostrar mais

Necessitamos do seu Consentimento

A Meteoprog e os seus Fornecedores de Serviços podem armazenar e aceder a dados pessoais como cookies, identificadores do dispositivo ou outras tecnologias semelhantes existentes no seu dispositivo e processar estes dados para personalizar conteúdos e anúncios, assim como funcionalidades nas redes sociais e análise de tráfego.

  • Armazenar e/ou aceder a informações no seu dispositivo

    Os cookies, identificadores do dispositivo ou outras informações podem ser armazenados ou acedidos no seu dispositivo, para os fins acima indicados.

  • Anúncios e conteúdos personalizados, medição de anúncios e conteúdos, dados sobre o público-alvo e desenvolvimento de produtos

    Os anúncios e os conteúdos podem ser personalizados com base num perfil. Podem ser adicionados dados adicionais para uma maior personalização dos anúncios e dos conteúdos. A eficácia dos anúncios e dos conteúdos pode ser medida. Podem ser obtidas informações sobre o público que visualizou os anúncios e os conteúdos. Estes dados podem ser usados para desenvolver ou melhorar sistemas, softwares ou a experiência do utilizador.

Ao clicar em "Eu concordo”, permitirá o uso de cookies, identificadores do dispositivo e web beacons mencionados ou outras tecnologias semelhantes. As configurações do navegador do seu dispositivo podem ser alteradas.

Para certos fins, podem ser invocados interesses legítimos ao invés de consentimento. Pode ler mais informação sobre este assunto na nossa Política de Privacidade e Cookies.